• In Deutschland
  • Länderverzeichnis
  • Für 7 Tage
  • Wassertemperatur
  • Satellitenkarten
  • Wetterkarte
  • Widgets
  • user-avatar
    Anmelden

    Stündliche Wetter Mokoa

    Heute, 21 November, Dienstag

    Zeit Temperatur Niederschläge Wind Luftdruck Luftfeuchtigkeit
    00:00 +27°C° 0,1 mm 3 m/S 752 mmHg 92%
    01:00 +27°C° 0,1 mm 3 m/S 752 mmHg 93%
    02:00 +26°C° 0 mm 3 m/S 752 mmHg 94%
    03:00 +26°C° 0 mm 3 m/S 752 mmHg 94%
    04:00 +26°C° 0 mm 3 m/S 751 mmHg 94%
    05:00 +27°C° 0,1 mm 3 m/S 752 mmHg 93%
    06:00 +27°C° 0,1 mm 3 m/S 752 mmHg 92%
    07:00 +28°C° 0,1 mm 3 m/S 753 mmHg 90%
    08:00 +29°C° 0,1 mm 3 m/S 753 mmHg 83%
    09:00 +32°C° 0,1 mm 4 m/S 753 mmHg 76%
    10:00 +33°C° 0,1 mm 4 m/S 753 mmHg 68%
    11:00 +34°C° 0,2 mm 4 m/S 753 mmHg 65%
    12:00 +35°C° 0,2 mm 4 m/S 752 mmHg 63%
    13:00 +35°C° 0,2 mm 4 m/S 752 mmHg 60%
    14:00 +35°C° 0,3 mm 4 m/S 751 mmHg 62%
    15:00 +34°C° 0,3 mm 4 m/S 751 mmHg 64%
    16:00 +34°C° 0,3 mm 4 m/S 751 mmHg 66%
    17:00 +32°C° 0,3 mm 4 m/S 751 mmHg 71%
    18:00 +30°C° 0,3 mm 3 m/S 752 mmHg 76%
    19:00 +28°C° 0,3 mm 3 m/S 752 mmHg 81%
    20:00 +28°C° 0 mm 3 m/S 752 mmHg 83%
    21:00 +28°C° 0 mm 3 m/S 753 mmHg 85%
    22:00 +28°C° 0 mm 3 m/S 753 mmHg 87%
    23:00 +28°C° 0,1 mm 3 m/S 753 mmHg 89%

    Morgen, 22 November, Mittwoch

    Zeit Temperatur Niederschläge Wind Luftdruck Luftfeuchtigkeit
    00:00 +27°C° 0,1 mm 3 m/S 753 mmHg 90%
    01:00 +27°C° 0,1 mm 3 m/S 753 mmHg 92%
    02:00 +27°C° 0,3 mm 3 m/S 752 mmHg 92%
    03:00 +27°C° 0,3 mm 3 m/S 752 mmHg 93%
    04:00 +27°C° 0,3 mm 3 m/S 752 mmHg 94%
    05:00 +27°C° 0,1 mm 3 m/S 752 mmHg 92%
    06:00 +28°C° 0,1 mm 3 m/S 753 mmHg 91%
    07:00 +28°C° 0,1 mm 3 m/S 753 mmHg 89%
    08:00 +30°C° 0 mm 3 m/S 754 mmHg 79%
    09:00 +33°C° 0 mm 3 m/S 754 mmHg 69%
    10:00 +35°C° 0 mm 3 m/S 754 mmHg 59%
    11:00 +35°C° 0,2 mm 3 m/S 754 mmHg 58%
    12:00 +36°C° 0,2 mm 3 m/S 753 mmHg 56%
    13:00 +36°C° 0,2 mm 3 m/S 752 mmHg 55%
    14:00 +36°C° 0,2 mm 3 m/S 752 mmHg 58%
    15:00 +35°C° 0,2 mm 3 m/S 751 mmHg 60%
    16:00 +34°C° 0,2 mm 3 m/S 751 mmHg 63%
    17:00 +31°C° 0,1 mm 3 m/S 751 mmHg 70%
    18:00 +30°C° 0,1 mm 3 m/S 752 mmHg 76%
    19:00 +28°C° 0,1 mm 3 m/S 752 mmHg 83%
    20:00 +28°C° 0 mm 3 m/S 753 mmHg 85%
    21:00 +28°C° 0 mm 3 m/S 753 mmHg 87%
    22:00 +27°C° 0 mm 3 m/S 753 mmHg 88%
    23:00 +27°C° 0,3 mm 3 m/S 753 mmHg 90%

    übermorgen, 23 November, Donnerstag

    Zeit Temperatur Niederschläge Wind Luftdruck Luftfeuchtigkeit
    00:00 +27°C° 0,3 mm 3 m/S 753 mmHg 91%
    01:00 +27°C° 0,3 mm 3 m/S 753 mmHg 92%
    02:00 +27°C° 0,7 mm 3 m/S 752 mmHg 92%
    03:00 +27°C° 0,7 mm 3 m/S 752 mmHg 93%
    04:00 +27°C° 0,7 mm 2 m/S 752 mmHg 93%
    05:00 +27°C° 0,8 mm 3 m/S 752 mmHg 91%
    06:00 +27°C° 0,8 mm 3 m/S 753 mmHg 90%
    07:00 +28°C° 0,8 mm 3 m/S 753 mmHg 88%
    08:00 +29°C° 0,4 mm 3 m/S 753 mmHg 81%
    09:00 +32°C° 0,4 mm 4 m/S 754 mmHg 74%
    10:00 +33°C° 0,4 mm 4 m/S 754 mmHg 66%
    11:00 +34°C° 0,2 mm 4 m/S 753 mmHg 63%
    12:00 +35°C° 0,2 mm 4 m/S 752 mmHg 60%
    13:00 +36°C° 0,2 mm 4 m/S 752 mmHg 56%
    14:00 +35°C° 0,2 mm 4 m/S 751 mmHg 59%
    15:00 +34°C° 0,2 mm 4 m/S 751 mmHg 61%
    16:00 +34°C° 0,2 mm 4 m/S 750 mmHg 63%
    17:00 +32°C° 0,3 mm 4 m/S 751 mmHg 70%
    18:00 +30°C° 0,3 mm 4 m/S 751 mmHg 76%
    19:00 +28°C° 0,3 mm 3 m/S 752 mmHg 83%
    20:00 +28°C° 0,4 mm 3 m/S 753 mmHg 85%
    21:00 +27°C° 0,4 mm 3 m/S 753 mmHg 88%
    22:00 +27°C° 0,4 mm 3 m/S 754 mmHg 90%
    23:00 +27°C° 0,4 mm 3 m/S 753 mmHg 91%

    24 November, Freitag

    Zeit Temperatur Niederschläge Wind Luftdruck Luftfeuchtigkeit
    00:00 +27°C° 0,4 mm 2 m/S 753 mmHg 92%
    01:00 +26°C° 0,4 mm 2 m/S 753 mmHg 92%
    02:00 +26°C° 0,4 mm 2 m/S 753 mmHg 93%
    03:00 +26°C° 0,4 mm 2 m/S 753 mmHg 93%
    04:00 +26°C° 0,4 mm 2 m/S 753 mmHg 93%
    05:00 +26°C° 0,1 mm 2 m/S 753 mmHg 92%
    06:00 +27°C° 0,1 mm 2 m/S 754 mmHg 91%
    07:00 +27°C° 0,1 mm 2 m/S 754 mmHg 89%
    08:00 +29°C° 0,3 mm 2 m/S 754 mmHg 81%
    09:00 +30°C° 0,3 mm 3 m/S 754 mmHg 73%
    10:00 +33°C° 0,3 mm 3 m/S 755 mmHg 66%
    11:00 +34°C° 0,2 mm 3 m/S 754 mmHg 64%
    12:00 +34°C° 0,2 mm 3 m/S 753 mmHg 62%
    13:00 +35°C° 0,2 mm 3 m/S 752 mmHg 60%
    14:00 +34°C° 0,4 mm 3 m/S 752 mmHg 62%
    15:00 +34°C° 0,4 mm 3 m/S 752 mmHg 65%
    16:00 +33°C° 0,4 mm 3 m/S 751 mmHg 67%
    17:00 +30°C° 0,3 mm 3 m/S 752 mmHg 73%
    18:00 +29°C° 0,3 mm 3 m/S 753 mmHg 79%
    19:00 +27°C° 0,3 mm 2 m/S 753 mmHg 85%
    20:00 +27°C° 0 mm 2 m/S 754 mmHg 86%
    21:00 +27°C° 0 mm 2 m/S 754 mmHg 86%
    22:00 +27°C° 0 mm 2 m/S 754 mmHg 87%
    23:00 +26°C° 0 mm 2 m/S 754 mmHg 88%

    25 November, Samstag

    Zeit Temperatur Niederschläge Wind Luftdruck Luftfeuchtigkeit
    00:00 +26°C° 0 mm 2 m/S 754 mmHg 89%
    01:00 +26°C° 0 mm 2 m/S 753 mmHg 90%
    02:00 +26°C° 0 mm 2 m/S 753 mmHg 91%
    03:00 +26°C° 0 mm 2 m/S 753 mmHg 92%
    04:00 +26°C° 0 mm 2 m/S 753 mmHg 93%
    05:00 +27°C° 0 mm 2 m/S 753 mmHg 91%
    06:00 +27°C° 0 mm 2 m/S 754 mmHg 90%
    07:00 +27°C° 0 mm 2 m/S 754 mmHg 88%
    08:00 +29°C° 0 mm 3 m/S 754 mmHg 79%
    09:00 +31°C° 0 mm 3 m/S 755 mmHg 69%
    10:00 +34°C° 0 mm 4 m/S 755 mmHg 60%
    11:00 +35°C° 0 mm 4 m/S 754 mmHg 57%
    12:00 +35°C° 0 mm 4 m/S 753 mmHg 54%
    13:00 +36°C° 0 mm 4 m/S 752 mmHg 51%
    14:00 +35°C° 0 mm 4 m/S 752 mmHg 53%
    15:00 +34°C° 0 mm 4 m/S 752 mmHg 56%
    16:00 +34°C° 0 mm 4 m/S 751 mmHg 59%
    17:00 +31°C° 0 mm 3 m/S 752 mmHg 66%
    18:00 +29°C° 0 mm 3 m/S 753 mmHg 74%
    19:00 +28°C° 0 mm 2 m/S 753 mmHg 81%
    20:00 +27°C° 0,2 mm 2 m/S 753 mmHg 83%
    21:00 +27°C° 0,2 mm 2 m/S 754 mmHg 85%
    22:00 +27°C° 0,2 mm 2 m/S 754 mmHg 88%
    23:00 +27°C° 0,6 mm 2 m/S 754 mmHg 89%

    26 November, Sonntag

    Zeit Temperatur Niederschläge Wind Luftdruck Luftfeuchtigkeit
    00:00 +27°C° 0,6 mm 2 m/S 753 mmHg 90%
    01:00 +26°C° 0,6 mm 2 m/S 753 mmHg 91%
    02:00 +26°C° 0,3 mm 2 m/S 753 mmHg 91%
    03:00 +26°C° 0,3 mm 2 m/S 753 mmHg 91%
    04:00 +26°C° 0,3 mm 2 m/S 753 mmHg 92%
    05:00 +27°C° 0,1 mm 2 m/S 753 mmHg 90%
    06:00 +27°C° 0,1 mm 2 m/S 754 mmHg 89%
    07:00 +27°C° 0,1 mm 2 m/S 754 mmHg 88%
    08:00 +29°C° 0 mm 3 m/S 754 mmHg 79%
    09:00 +31°C° 0 mm 3 m/S 754 mmHg 70%
    10:00 +34°C° 0 mm 3 m/S 754 mmHg 60%
    11:00 +35°C° 0,2 mm 3 m/S 753 mmHg 60%
    12:00 +35°C° 0,2 mm 3 m/S 752 mmHg 60%
    13:00 +36°C° 0,2 mm 3 m/S 752 mmHg 60%
    14:00 +35°C° 0,4 mm 3 m/S 751 mmHg 62%
    15:00 +34°C° 0,4 mm 3 m/S 751 mmHg 64%
    16:00 +34°C° 0,4 mm 3 m/S 751 mmHg 66%
    17:00 +31°C° 0,2 mm 3 m/S 751 mmHg 71%
    18:00 +30°C° 0,2 mm 3 m/S 752 mmHg 77%
    19:00 +28°C° 0,2 mm 3 m/S 752 mmHg 83%
    20:00 +28°C° 0,5 mm 3 m/S 753 mmHg 85%
    21:00 +27°C° 0,5 mm 3 m/S 753 mmHg 87%
    22:00 +27°C° 0,5 mm 3 m/S 753 mmHg 89%
    23:00 +27°C° 0,3 mm 3 m/S 753 mmHg 90%
    Mehr zeigen